STARLINK-35926

Last updated on Wed Dec 31 2025 00:02:07 GMT+0000 (Coordinated Universal Time)

1 66642U 25271AB 25363.79150612 .00090817 00000+0 22505-2 0 9991 2 66642 53.1590 106.1149 0001286 78.4546 281.6604 15.39660207 6802
UTC large
Height (km)
Speed (km/s)
/
Latitude / Longitude
Inclination (degrees)
Orbital Period (minutes)
Azimuth
Elevation
Range (km)
Doppler Factor

Next 0 passes for location: London (51.5072 / 0.1276)

Sorry there are no passes over London.